| time (UTC) | temp C | wind direction | speed KPH | gust KPH | rain 1hr cm | rain 24hr cm | rain mn cm | humidity % | barometer mb |
| 20260503034122 | 26 | 182 | 6.4 | 9.7 | 0.00 | 0.00 | 0.00 | 79 | 1017.5 |
| 20260503033619 | 27 | 204 | 6.4 | 6.4 | 0.00 | 0.00 | 0.00 | 78 | 1017.3 |
| 20260503033117 | 27 | 166 | 1.6 | 6.4 | 0.00 | 0.00 | 0.00 | 78 | 1017.4 |
| 20260503032615 | 27 | 66 | 1.6 | 4.8 | 0.00 | 0.00 | 0.00 | 78 | 1017.4 |
| 20260503032113 | 26 | 195 | 3.2 | 6.4 | 0.00 | 0.00 | 0.00 | 78 | 1017.5 |
| 20260503031610 | 26 | 194 | 1.6 | 3.2 | 0.00 | 0.00 | 0.00 | 79 | 1017.4 |
| 20260503031108 | 26 | 250 | 1.6 | 4.8 | 0.00 | 0.00 | 0.00 | 78 | 1017.5 |
| 20260503030604 | 26 | 159 | 3.2 | 4.8 | 0.00 | 0.00 | 0.00 | 79 | 1017.4 |
| 20260503030100 | 27 | 164 | 1.6 | 4.8 | 0.00 | 0.00 | 0.00 | 78 | 1017.4 |
| 20260503025557 | 27 | 147 | 3.2 | 4.8 | 0.00 | 0.00 | 0.00 | 78 | 1017.3 |
| 20260503025055 | 27 | 236 | 1.6 | 3.2 | 0.00 | 0.00 | 0.00 | 78 | 1017.2 |
| 20260503024551 | 27 | 191 | 3.2 | 4.8 | 0.00 | 0.00 | 0.00 | 78 | 1017.2 |
| 20260503024049 | 27 | 147 | 3.2 | 6.4 | 0.00 | 0.00 | 0.00 | 78 | 1017.0 |
| 20260503023545 | 27 | 146 | 3.2 | 4.8 | 0.00 | 0.00 | 0.00 | 79 | 1017.3 |
| 20260503023042 | 26 | 172 | 0.0 | 3.2 | 0.00 | 0.00 | 0.00 | 79 | 1017.1 |
| 20260503022537 | 27 | 195 | 3.2 | 3.2 | 0.00 | 0.00 | 0.00 | 78 | 1016.9 |
| 20260503022032 | 27 | 218 | 1.6 | 4.8 | 0.00 | 0.00 | 0.00 | 78 | 1017.0 |
| 20260503021529 | 27 | 122 | 3.2 | 4.8 | 0.00 | 0.00 | 0.00 | 78 | 1016.9 |
| 20260503021026 | 27 | 168 | 3.2 | 4.8 | 0.00 | 0.00 | 0.00 | 77 | 1016.9 |
| 20260503020524 | 27 | 204 | 3.2 | 6.4 | 0.00 | 0.00 | 0.00 | 77 | 1017.0 |
| 20260503020020 | 27 | 200 | 3.2 | 4.8 | 0.00 | 0.00 | 0.00 | 77 | 1016.6 |
| 20260503015517 | 27 | 167 | 3.2 | 4.8 | 0.00 | 0.00 | 0.00 | 77 | 1016.6 |
| 20260503015014 | 27 | 220 | 3.2 | 4.8 | 0.00 | 0.00 | 0.00 | 76 | 1016.4 |
| 20260503014510 | 27 | 204 | 3.2 | 8.0 | 0.00 | 0.00 | 0.00 | 76 | 1016.4 |
| 20260503014008 | 27 | 234 | 3.2 | 4.8 | 0.00 | 0.00 | 0.00 | 76 | 1016.6 |
| 20260503013505 | 27 | 224 | 1.6 | 4.8 | 0.00 | 0.00 | 0.00 | 75 | 1016.3 |
| 20260503013003 | 27 | 214 | 1.6 | 3.2 | 0.00 | 0.00 | 0.00 | 75 | 1016.2 |
| 20260503012501 | 27 | 141 | 1.6 | 3.2 | 0.00 | 0.00 | 0.00 | 74 | 1016.1 |
| 20260503011956 | 27 | 143 | 3.2 | 4.8 | 0.00 | 0.00 | 0.00 | 74 | 1016.2 |
| 20260503011453 | 27 | 191 | 3.2 | 3.2 | 0.00 | 0.00 | 0.00 | 73 | 1016.1 |
| 20260503010950 | 27 | 230 | 1.6 | 4.8 | 0.00 | 0.00 | 0.00 | 73 | 1016.2 |
| 20260503010447 | 27 | 166 | 3.2 | 4.8 | 0.00 | 0.00 | 0.00 | 73 | 1015.9 |
| 20260503005944 | 27 | 150 | 3.2 | 4.8 | 0.00 | 0.00 | 0.00 | 73 | 1015.8 |
| 20260503005442 | 27 | 204 | 0.0 | 3.2 | 0.00 | 0.00 | 0.00 | 73 | 1015.9 |
| 20260503004938 | 27 | 148 | 6.4 | 6.4 | 0.00 | 0.00 | 0.00 | 72 | 1015.5 |
| 20260503004435 | 27 | 169 | 1.6 | 6.4 | 0.00 | 0.00 | 0.00 | 73 | 1015.6 |
| 20260503003932 | 27 | 127 | 3.2 | 8.0 | 0.00 | 0.00 | 0.00 | 72 | 1015.5 |
| 20260503003429 | 27 | 154 | 4.8 | 4.8 | 0.00 | 0.00 | 0.00 | 72 | 1015.5 |
| 20260503002926 | 27 | 162 | 4.8 | 6.4 | 0.00 | 0.00 | 0.00 | 72 | 1015.5 |
| 20260503002423 | 27 | 178 | 3.2 | 3.2 | 0.00 | 0.00 | 0.00 | 73 | 1015.5 |
| 20260503001919 | 27 | 123 | 3.2 | 6.4 | 0.00 | 0.00 | 0.00 | 73 | 1015.7 |
| 20260503001416 | 27 | 201 | 1.6 | 8.0 | 0.00 | 0.00 | 0.00 | 72 | 1015.6 |
| 20260503000914 | 27 | 138 | 4.8 | 8.0 | 0.00 | 0.00 | 0.00 | 72 | 1015.6 |
| 20260503000410 | 27 | 179 | 3.2 | 9.7 | 0.00 | 0.00 | 0.00 | 73 | 1015.5 |
| 20260502235908 | 27 | 175 | 6.4 | 8.0 | 0.00 | 0.00 | 0.00 | 74 | 1015.3 |
| 20260502235405 | 27 | 226 | 1.6 | 8.0 | 0.00 | 0.00 | 0.00 | 76 | 1015.3 |
| 20260502234902 | 27 | 162 | 4.8 | 9.7 | 0.00 | 0.00 | 0.00 | 76 | 1015.2 |
| 20260502234358 | 27 | 234 | 1.6 | 3.2 | 0.00 | 0.00 | 0.00 | 77 | 1015.0 |
| 20260502233855 | 27 | 174 | 4.8 | 6.4 | 0.00 | 0.00 | 0.00 | 76 | 1014.9 |
| 20260502233351 | 27 | 148 | 4.8 | 6.4 | 0.00 | 0.00 | 0.00 | 75 | 1015.1 |
| 20260502232848 | 28 | 180 | 3.2 | 6.4 | 0.00 | 0.00 | 0.00 | 74 | 1014.9 |
| 20260502232345 | 28 | 179 | 3.2 | 6.4 | 0.00 | 0.00 | 0.00 | 73 | 1015.1 |
| 20260502231841 | 28 | 156 | 3.2 | 6.4 | 0.00 | 0.00 | 0.00 | 73 | 1015.2 |
| 20260502231339 | 28 | 218 | 1.6 | 6.4 | 0.00 | 0.00 | 0.00 | 72 | 1014.9 |
| 20260502230837 | 28 | 179 | 3.2 | 8.0 | 0.00 | 0.00 | 0.00 | 71 | 1015.0 |
| 20260502230335 | 28 | 141 | 3.2 | 9.7 | 0.00 | 0.00 | 0.00 | 71 | 1014.8 |
| 20260502225832 | 29 | 192 | 3.2 | 8.0 | 0.00 | 0.00 | 0.00 | 70 | 1014.8 |
| 20260502225328 | 29 | 200 | 3.2 | 4.8 | 0.00 | 0.00 | 0.00 | 70 | 1014.8 |
| 20260502224825 | 29 | 146 | 3.2 | 9.7 | 0.00 | 0.00 | 0.00 | 68 | 1014.6 |
| 20260502224321 | 29 | 215 | 3.2 | 6.4 | 0.00 | 0.00 | 0.00 | 69 | 1014.5 |
| 20260502223819 | 29 | 184 | 3.2 | 9.7 | 0.00 | 0.00 | 0.00 | 69 | 1014.3 |
| 20260502223312 | 30 | 91 | 0.0 | 9.7 | 0.00 | 0.00 | 0.00 | 67 | 1014.7 |
| 20260502222809 | 30 | 185 | 3.2 | 8.0 | 0.00 | 0.00 | 0.00 | 66 | 1014.4 |
| 20260502222306 | 30 | 182 | 4.8 | 11.3 | 0.00 | 0.00 | 0.00 | 67 | 1014.5 |
| 20260502221801 | 30 | 178 | 6.4 | 14.5 | 0.00 | 0.00 | 0.00 | 66 | 1014.4 |
| 20260502221257 | 30 | 178 | 6.4 | 12.9 | 0.00 | 0.00 | 0.00 | 65 | 1014.3 |
| 20260502220754 | 30 | 168 | 4.8 | 12.9 | 0.00 | 0.00 | 0.00 | 66 | 1014.3 |
| 20260502220250 | 30 | 187 | 6.4 | 11.3 | 0.00 | 0.00 | 0.00 | 65 | 1014.3 |
| 20260502215747 | 30 | 185 | 3.2 | 12.9 | 0.00 | 0.00 | 0.00 | 64 | 1014.2 |
| 20260502215245 | 30 | 200 | 6.4 | 9.7 | 0.00 | 0.00 | 0.00 | 66 | 1014.0 |
| 20260502214742 | 30 | 155 | 9.7 | 12.9 | 0.00 | 0.00 | 0.00 | 66 | 1014.1 |
| 20260502214238 | 30 | 140 | 6.4 | 11.3 | 0.00 | 0.00 | 0.00 | 66 | 1014.1 |
| 20260502213736 | 30 | 195 | 4.8 | 4.8 | 0.00 | 0.00 | 0.00 | 67 | 1014.0 |
| 20260502213233 | 30 | 195 | 4.8 | 12.9 | 0.00 | 0.00 | 0.00 | 67 | 1014.0 |
| 20260502212732 | 30 | 169 | 8.0 | 12.9 | 0.00 | 0.00 | 0.00 | 67 | 1014.2 |
| 20260502212229 | 30 | 158 | 8.0 | 11.3 | 0.00 | 0.00 | 0.00 | 68 | 1014.3 |
| 20260502211725 | 30 | 149 | 12.9 | 16.1 | 0.00 | 0.00 | 0.00 | 67 | 1014.1 |
| 20260502211222 | 30 | 170 | 11.3 | 12.9 | 0.00 | 0.00 | 0.00 | 67 | 1014.0 |
| 20260502210719 | 30 | 170 | 11.3 | 12.9 | 0.00 | 0.00 | 0.00 | 67 | 1014.3 |
| 20260502210217 | 30 | 155 | 9.7 | 16.1 | 0.00 | 0.00 | 0.00 | 65 | 1014.0 |
| 20260502205714 | 30 | 169 | 8.0 | 14.5 | 0.00 | 0.00 | 0.00 | 65 | 1014.4 |
| 20260502205210 | 30 | 190 | 4.8 | 17.7 | 0.00 | 0.00 | 0.00 | 64 | 1014.3 |
| 20260502204707 | 30 | 155 | 6.4 | 16.1 | 0.00 | 0.00 | 0.00 | 64 | 1014.1 |
| 20260502204200 | 30 | 174 | 8.0 | 16.1 | 0.00 | 0.00 | 0.00 | 62 | 1014.0 |
| 20260502203656 | 30 | 184 | 9.7 | 16.1 | 0.00 | 0.00 | 0.00 | 64 | 1014.2 |
| 20260502203154 | 30 | 198 | 6.4 | 19.3 | 0.00 | 0.00 | 0.00 | 63 | 1014.0 |
| 20260502202648 | 30 | 196 | 8.0 | 17.7 | 0.00 | 0.00 | 0.00 | 60 | 1014.2 |
| 20260502202141 | 30 | 168 | 11.3 | 19.3 | 0.00 | 0.00 | 0.00 | 59 | 1014.0 |
| 20260502201637 | 30 | 113 | 1.6 | 17.7 | 0.00 | 0.00 | 0.00 | 61 | 1014.2 |
| 20260502201134 | 30 | 214 | 3.2 | 19.3 | 0.00 | 0.00 | 0.00 | 63 | 1014.0 |
| 20260502200629 | 30 | 175 | 6.4 | 16.1 | 0.00 | 0.00 | 0.00 | 59 | 1014.2 |
| 20260502200127 | 31 | 148 | 6.4 | 11.3 | 0.00 | 0.00 | 0.00 | 62 | 1014.3 |
| 20260502195625 | 30 | 207 | 9.7 | 14.5 | 0.00 | 0.00 | 0.00 | 60 | 1014.2 |
| 20260502195120 | 30 | 189 | 6.4 | 16.1 | 0.00 | 0.00 | 0.00 | 62 | 1014.1 |
| 20260502194618 | 30 | 167 | 8.0 | 17.7 | 0.00 | 0.00 | 0.00 | 63 | 1014.4 |
| 20260502194114 | 30 | 213 | 11.3 | 16.1 | 0.00 | 0.00 | 0.00 | 61 | 1014.4 |
| 20260502193611 | 30 | 160 | 6.4 | 16.1 | 0.00 | 0.00 | 0.00 | 61 | 1014.4 |
| 20260502193108 | 31 | 194 | 8.0 | 12.9 | 0.00 | 0.00 | 0.00 | 62 | 1014.1 |
| 20260502192604 | 30 | 179 | 6.4 | 14.5 | 0.00 | 0.00 | 0.00 | 66 | 1014.4 |
| 20260502192102 | 30 | 156 | 14.5 | 16.1 | 0.00 | 0.00 | 0.00 | 64 | 1014.4 |
| 20260502191558 | 31 | 200 | 9.7 | 19.3 | 0.00 | 0.00 | 0.00 | 62 | 1014.5 |
| 20260502191055 | 31 | 187 | 4.8 | 14.5 | 0.00 | 0.00 | 0.00 | 61 | 1014.5 |
| 20260502190553 | 31 | 169 | 6.4 | 16.1 | 0.00 | 0.00 | 0.00 | 62 | 1014.6 |
| 20260502190050 | 31 | 150 | 9.7 | 11.3 | 0.00 | 0.00 | 0.00 | 60 | 1014.5 |
| 20260502185544 | 31 | 185 | 6.4 | 12.9 | 0.00 | 0.00 | 0.00 | 61 | 1014.9 |
| 20260502185042 | 31 | 204 | 3.2 | 11.3 | 0.00 | 0.00 | 0.00 | 63 | 1014.8 |
| 20260502184537 | 31 | 190 | 8.0 | 11.3 | 0.00 | 0.00 | 0.00 | 62 | 1014.9 |
| 20260502184033 | 31 | 174 | 8.0 | 16.1 | 0.00 | 0.00 | 0.00 | 62 | 1015.1 |
| 20260502183530 | 31 | 159 | 16.1 | 17.7 | 0.00 | 0.00 | 0.00 | 60 | 1015.3 |
| 20260502183026 | 31 | 190 | 3.2 | 16.1 | 0.00 | 0.00 | 0.00 | 63 | 1015.2 |
| 20260502182521 | 31 | 223 | 6.4 | 16.1 | 0.00 | 0.00 | 0.00 | 60 | 1015.3 |
| 20260502182017 | 31 | 178 | 4.8 | 9.7 | 0.00 | 0.00 | 0.00 | 61 | 1015.1 |
| 20260502181515 | 31 | 172 | 4.8 | 14.5 | 0.00 | 0.00 | 0.00 | 62 | 1015.5 |
| 20260502181014 | 31 | 176 | 3.2 | 12.9 | 0.00 | 0.00 | 0.00 | 64 | 1015.4 |
| 20260502180511 | 31 | 119 | 11.3 | 17.7 | 0.00 | 0.00 | 0.00 | 60 | 1015.4 |
| 20260502170430 | 30 | 148 | 8.0 | 17.7 | 0.00 | 0.00 | 0.00 | 70 | 1016.1 |
| 20260502163913 | 30 | 146 | 14.5 | 16.1 | 0.00 | 0.00 | 0.00 | 66 | 1016.0 |
| 20260502163409 | 30 | 192 | 4.8 | 8.0 | 0.00 | 0.00 | 0.00 | 69 | 1016.0 |
| 20260502162907 | 30 | 153 | 8.0 | 14.5 | 0.00 | 0.00 | 0.00 | 70 | 1016.2 |
| 20260502162403 | 30 | 186 | 16.1 | 17.7 | 0.00 | 0.00 | 0.00 | 71 | 1016.1 |
| 20260502161900 | 29 | 167 | 6.4 | 11.3 | 0.00 | 0.00 | 0.00 | 73 | 1016.2 |
| 20260502161351 | 29 | 184 | 8.0 | 14.5 | 0.00 | 0.00 | 0.00 | 72 | 1016.3 |
| 20260502160849 | 29 | 222 | 6.4 | 11.3 | 0.00 | 0.00 | 0.00 | 72 | 1016.3 |
| 20260502160348 | 29 | 120 | 6.4 | 16.1 | 0.00 | 0.00 | 0.00 | 71 | 1016.3 |
| 20260502152322 | 28 | 113 | 3.2 | 8.0 | 0.00 | 0.00 | 0.00 | 75 | 1016.2 |
| 20260502151820 | 28 | 136 | 6.4 | 12.9 | 0.00 | 0.00 | 0.00 | 74 | 1016.3 |
| 20260502151317 | 28 | 78 | 6.4 | 11.3 | 0.00 | 0.00 | 0.00 | 75 | 1016.2 |
| 20260502150814 | 28 | 114 | 3.2 | 6.4 | 0.00 | 0.00 | 0.00 | 77 | 1016.2 |
| 20260502150310 | 28 | 149 | 6.4 | 6.4 | 0.00 | 0.00 | 0.00 | 78 | 1016.4 |
| 20260502130659 | 28 | 312 | 1.6 | 3.2 | 0.00 | 0.00 | 0.00 | 75 | 1015.9 |
| 20260502130157 | 27 | 321 | 3.2 | 3.2 | 0.00 | 0.00 | 0.00 | 75 | 1015.8 |
| 20260502123641 | 27 | 285 | 1.6 | 3.2 | 0.00 | 0.00 | 0.00 | 79 | 1015.9 |
| 20260502123139 | 27 | 301 | 1.6 | 1.6 | 0.00 | 0.00 | 0.00 | 78 | 1015.7 |
| 20260502122635 | 27 | 268 | 1.6 | 1.6 | 0.00 | 0.00 | 0.00 | 78 | 1015.6 |
| 20260502122132 | 27 | 319 | 0.0 | 1.6 | 0.00 | 0.00 | 0.00 | 79 | 1015.6 |
| 20260502121630 | 26 | 266 | 0.0 | 1.6 | 0.00 | 0.00 | 0.00 | 80 | 1015.6 |
| 20260502121127 | 26 | 50 | 1.6 | 1.6 | 0.00 | 0.00 | 0.00 | 82 | 1015.4 |
| 20260502120624 | 26 | 284 | 1.6 | 1.6 | 0.00 | 0.00 | 0.00 | 84 | 1015.4 |
| 20260502120121 | 25 | 313 | 0.0 | 1.6 | 0.00 | 0.00 | 0.00 | 86 | 1015.3 |
| 20260502115619 | 25 | 356 | 1.6 | 3.2 | 0.00 | 0.00 | 0.00 | 86 | 1015.1 |
| 20260502115114 | 25 | 13 | 1.6 | 3.2 | 0.00 | 0.00 | 0.00 | 87 | 1015.0 |
| 20260502114611 | 25 | 326 | 3.2 | 3.2 | 0.00 | 0.00 | 0.00 | 86 | 1014.9 |
| 20260502114108 | 24 | 24 | 1.6 | 1.6 | 0.00 | 0.00 | 0.00 | 88 | 1014.8 |
| 20260502113605 | 24 | 281 | 3.2 | 4.8 | 0.00 | 0.00 | 0.00 | 86 | 1014.8 |
| 20260502113104 | 24 | 313 | 1.6 | 3.2 | 0.00 | 0.00 | 0.00 | 87 | 1014.8 |
| 20260502112601 | 24 | 303 | 1.6 | 1.6 | 0.00 | 0.00 | 0.00 | 86 | 1014.7 |
| 20260502112059 | 24 | 285 | 1.6 | 3.2 | 0.00 | 0.00 | 0.00 | 85 | 1014.8 |
| 20260502111556 | 25 | 282 | 1.6 | 3.2 | 0.00 | 0.00 | 0.00 | 84 | 1014.7 |
| 20260502111053 | 23 | 70 | 1.6 | 1.6 | 0.00 | 0.00 | 0.00 | 89 | 1014.6 |
| 20260502110550 | 23 | 305 | 1.6 | 1.6 | 0.00 | 0.00 | 0.00 | 90 | 1014.4 |
| 20260502110048 | 23 | 65 | 3.2 | 3.2 | 0.00 | 0.00 | 0.00 | 90 | 1014.4 |
| 20260502105545 | 23 | 51 | 1.6 | 4.8 | 0.00 | 0.00 | 0.00 | 91 | 1014.4 |
| 20260502105043 | 23 | 136 | 0.0 | 1.6 | 0.00 | 0.00 | 0.00 | 91 | 1014.5 |
| 20260502104539 | 23 | 72 | 1.6 | 1.6 | 0.00 | 0.00 | 0.00 | 91 | 1014.4 |
| 20260502104037 | 23 | 32 | 1.6 | 3.2 | 0.00 | 0.00 | 0.00 | 91 | 1014.5 |
| 20260502103535 | 23 | 54 | 1.6 | 1.6 | 0.00 | 0.00 | 0.00 | 90 | 1014.4 |
| 20260502103033 | 23 | 31 | 1.6 | 3.2 | 0.00 | 0.00 | 0.00 | 89 | 1014.2 |
| 20260502102528 | 24 | 65 | 1.6 | 1.6 | 0.00 | 0.00 | 0.00 | 87 | 1014.1 |
| 20260502102026 | 24 | 352 | 1.6 | 3.2 | 0.00 | 0.00 | 0.00 | 87 | 1014.1 |
| 20260502101523 | 24 | 357 | 1.6 | 1.6 | 0.00 | 0.00 | 0.00 | 88 | 1014.3 |
| 20260502101022 | 23 | 20 | 1.6 | 1.6 | 0.00 | 0.00 | 0.00 | 88 | 1014.1 |
| 20260502100520 | 23 | 21 | 1.6 | 1.6 | 0.00 | 0.00 | 0.00 | 89 | 1014.2 |
| 20260502091454 | 23 | 53 | 0.0 | 1.6 | 0.00 | 0.00 | 0.00 | 89 | 1013.9 |
| 20260502090952 | 23 | 23 | 0.0 | 1.6 | 0.00 | 0.00 | 0.00 | 88 | 1013.7 |
| 20260502090449 | 24 | 347 | 0.0 | 1.6 | 0.00 | 0.00 | 0.00 | 88 | 1013.6 |
| 20260502071343 | 24 | 325 | 1.6 | 3.2 | 0.00 | 0.00 | 0.00 | 88 | 1013.5 |
| 20260502070841 | 24 | 334 | 1.6 | 3.2 | 0.00 | 0.00 | 0.00 | 88 | 1013.6 |
| 20260502070339 | 24 | 328 | 1.6 | 3.2 | 0.00 | 0.00 | 0.00 | 87 | 1013.4 |
| 20260502065838 | 25 | 328 | 1.6 | 3.2 | 0.00 | 0.00 | 0.00 | 87 | 1013.6 |
| 20260502065335 | 25 | 321 | 3.2 | 3.2 | 0.00 | 0.00 | 0.00 | 86 | 1013.5 |
| 20260502064832 | 25 | 311 | 1.6 | 1.6 | 0.00 | 0.00 | 0.00 | 87 | 1013.4 |
| 20260502064331 | 25 | 286 | 1.6 | 3.2 | 0.00 | 0.00 | 0.00 | 88 | 1013.6 |
| 20260502063828 | 24 | 352 | 0.0 | 1.6 | 0.00 | 0.00 | 0.00 | 89 | 1013.2 |
| 20260502063325 | 24 | 23 | 1.6 | 1.6 | 0.00 | 0.00 | 0.00 | 89 | 1013.5 |
| 20260502062822 | 24 | 21 | 1.6 | 1.6 | 0.00 | 0.00 | 0.00 | 89 | 1013.7 |
| 20260502062320 | 24 | 42 | 1.6 | 3.2 | 0.00 | 0.00 | 0.00 | 88 | 1013.6 |
| 20260502061819 | 25 | 73 | 1.6 | 1.6 | 0.00 | 0.00 | 0.00 | 87 | 1013.6 |
| 20260502061316 | 25 | 74 | 1.6 | 1.6 | 0.00 | 0.00 | 0.00 | 86 | 1013.7 |
| 20260502060811 | 25 | 25 | 1.6 | 1.6 | 0.00 | 0.00 | 0.00 | 87 | 1013.6 |
| 20260502060307 | 25 | 48 | 1.6 | 1.6 | 0.00 | 0.00 | 0.00 | 88 | 1013.7 |
| 20260502055805 | 25 | 50 | 1.6 | 1.6 | 0.00 | 0.00 | 0.00 | 88 | 1013.9 |
| 20260502055305 | 24 | 19 | 1.6 | 1.6 | 0.00 | 0.00 | 0.00 | 89 | 1014.0 |
| 20260502054801 | 24 | 300 | 1.6 | 1.6 | 0.00 | 0.00 | 0.00 | 90 | 1014.2 |
| 20260502054259 | 24 | 100 | 1.6 | 1.6 | 0.00 | 0.00 | 0.00 | 90 | 1014.1 |
| 20260502053756 | 24 | 69 | 1.6 | 1.6 | 0.00 | 0.00 | 0.00 | 90 | 1014.2 |
| 20260502053253 | 24 | 71 | 1.6 | 1.6 | 0.00 | 0.00 | 0.00 | 91 | 1014.3 |
| 20260502052751 | 24 | 54 | 0.0 | 1.6 | 0.00 | 0.00 | 0.00 | 90 | 1014.5 |
| 20260502052249 | 24 | 39 | 1.6 | 1.6 | 0.00 | 0.00 | 0.00 | 90 | 1014.4 |
| 20260502051746 | 24 | 80 | 1.6 | 1.6 | 0.00 | 0.00 | 0.00 | 90 | 1014.5 |
| 20260502051245 | 25 | 327 | 0.0 | 1.6 | 0.00 | 0.00 | 0.00 | 89 | 1014.8 |
| 20260502050741 | 25 | 54 | 1.6 | 1.6 | 0.00 | 0.00 | 0.00 | 88 | 1014.7 |
| 20260502050237 | 25 | 10 | 1.6 | 3.2 | 0.00 | 0.00 | 0.00 | 88 | 1014.8 |
| 20260502045734 | 25 | 313 | 1.6 | 1.6 | 0.00 | 0.08 | 0.08 | 88 | 1014.8 |
| 20260502045231 | 25 | 337 | 1.6 | 1.6 | 0.00 | 0.08 | 0.08 | 88 | 1014.6 |
| 20260502044728 | 25 | 342 | 0.0 | 3.2 | 0.00 | 0.08 | 0.08 | 87 | 1014.9 |
| 20260502044224 | 25 | 334 | 1.6 | 1.6 | 0.00 | 0.08 | 0.08 | 87 | 1015.0 |
| 20260502043722 | 25 | 314 | 1.6 | 3.2 | 0.00 | 0.08 | 0.08 | 88 | 1014.8 |
| 20260502043219 | 25 | 317 | 1.6 | 1.6 | 0.00 | 0.08 | 0.08 | 87 | 1015.0 |
| 20260502042718 | 25 | 313 | 1.6 | 1.6 | 0.00 | 0.08 | 0.08 | 87 | 1015.1 |
| 20260502042216 | 25 | 326 | 1.6 | 3.2 | 0.00 | 0.08 | 0.08 | 87 | 1014.9 |
| 20260502041714 | 25 | 331 | 1.6 | 3.2 | 0.00 | 0.08 | 0.08 | 87 | 1015.0 |
| 20260502041211 | 25 | 338 | 1.6 | 3.2 | 0.00 | 0.08 | 0.08 | 87 | 1015.1 |
| 20260502040708 | 25 | 350 | 1.6 | 3.2 | 0.00 | 0.08 | 0.08 | 87 | 1015.0 |
| 20260502040205 | 25 | 341 | 1.6 | 3.2 | 0.00 | 0.08 | 0.08 | 88 | 1015.0 |
| 20260502035701 | 25 | 319 | 1.6 | 3.2 | 0.00 | 0.08 | 0.08 | 88 | 1014.8 |
| 20260502035157 | 25 | 313 | 1.6 | 3.2 | 0.00 | 0.08 | 0.08 | 88 | 1014.9 |
| 20260502034655 | 25 | 353 | 1.6 | 1.6 | 0.00 | 0.08 | 0.08 | 87 | 1014.9 |